Victoria, British Columbia

9:53 PM PDT on September 28, 2016 (GMT -0700)
Victoria International

Weather History for CYYJ - November, 2012

Change the Weather History Date:

Friday, November 23, 2012

  Actual Average Record
Temperature  
Mean Temperature 45 °F -  
Max Temperature 49 °F 46 °F 54 °F (2014)
Min Temperature 41 °F 36 °F 15 °F (2010)
Degree Days  
Heating Degree Days 20    
Moisture  
Dew Point 45 °F    
Average Humidity 94    
Maximum Humidity 100    
Minimum Humidity 82    
Precipitation  
Precipitation 0.20 in - - ()
Sea Level Pressure  
Sea Level Pressure 30.04 in    
Wind  
Wind Speed 10 mph ()    
Max Wind Speed 26 mph    
Max Gust Speed 34 mph    
Visibility 8.8 miles    
Events Fog , Rain    
Averages and records for this station are not official NWS values.
T = Trace of Precipitation, MM = Missing Value Source: Averaged Metar Reports

Daily Weather History Graph

Daily Weather History Graph

Search for Another Location

Airport or City:

Trip Planner

Search our weather history database for the weather conditions in past years. The results will help you decide how hot, cold, wet, or windy it might be!

Date:

Astronomy

Nov. 23, 2012 Rise Set
Actual Time 7:34 AM PST 4:25 PM PST
Civil Twilight 6:59 AM PST 5:00 PM PST
Nautical Twilight 6:20 AM PST 5:39 PM PST
Astronomical Twilight 5:43 AM PST 6:17 PM PST
Moon 1:59 PM PST (11/23) 2:40 AM PST (11/23)
Length of Visible Light 10h 01m
Length of Day
8h 50m
Waxing Gibbous, 80% of the Moon is Illuminated
Nov 23
Waxing Gibbous
Nov 28
Full
Dec 6
Last Quarter
Dec 13
New
Dec 19
First Quarter

Hourly Weather History & Observations

Time (PST) Temp. Windchill Dew Point Humidity Pressure Visibility Wind Dir Wind Speed Gust Speed Precip Events Conditions
12:00 AM 42.8 °F 39.3 °F 41.0 °F 93% 30.11 in 30.0 mi WNW 5.8 mph - N/A Rain Light Rain
1:00 AM 42.8 °F 38.6 °F 41.0 °F 93% 30.08 in 30.0 mi SE 6.9 mph 17.3 mph N/A Rain Light Rain
2:00 AM 48.2 °F - 42.8 °F 82% 30.06 in 8.0 mi SE 16.1 mph 28.8 mph N/A Rain Light Rain
3:00 AM 46.4 °F 37.7 °F 42.8 °F 87% 30.02 in 8.0 mi SE 26.5 mph 34.5 mph N/A Rain Light Rain
4:00 AM 47 °F - 44 °F 85% 30.02 in 7 mi SE 18.4 mph - - Rain Light Rain
4:00 AM 46.4 °F 38.5 °F 44.6 °F 93% 30.02 in 8.0 mi SE 21.9 mph 28.8 mph N/A Rain Light Rain
5:00 AM 46.4 °F 41.9 °F 44.6 °F 93% 30.03 in 4.0 mi SE 9.2 mph - N/A Rain Light Rain
6:00 AM 46.4 °F 42.9 °F 44.6 °F 93% 30.01 in 5.0 mi SSE 6.9 mph - N/A Rain Light Rain
6:43 AM 48.2 °F - - N/A% - 6.0 mi SE 15.0 mph - N/A   Overcast
6:56 AM 48.2 °F - - N/A% - 6.0 mi ESE 10.4 mph 18.4 mph N/A   Overcast
7:00 AM 48.2 °F - 46.4 °F 93% 30.01 in 7.0 mi ESE 9.2 mph - N/A   Overcast
7:19 AM 48.2 °F - - N/A% - 15.0 mi SE 11.5 mph - N/A Rain Light Rain
8:00 AM 48.2 °F - 46.4 °F 93% 30.01 in 15.0 mi SE 10.4 mph 17.3 mph N/A Rain Light Rain
9:00 AM 48.2 °F - 46.4 °F 93% 30.04 in 10.0 mi SE 18.4 mph - N/A Rain Light Rain
9:24 AM 46.4 °F 39.8 °F - N/A% - 7.0 mi SSE 16.1 mph 23.0 mph N/A Rain Light Rain
9:42 AM 46.4 °F 39.8 °F - N/A% - 7.0 mi SSE 16.1 mph - N/A Rain Light Rain
10:00 AM 47 °F - 46 °F 92% 30.04 in 7 mi SSE 17.3 mph - - Rain Light Rain
10:00 AM 46.4 °F 39.5 °F 46.4 °F 100% 30.04 in 7.0 mi SSE 17.3 mph - N/A Rain Light Rain
11:00 AM 48.2 °F - 46.4 °F 93% 30.05 in 12.0 mi SSE 16.1 mph - N/A Rain Light Rain
12:00 PM 48.2 °F - 46.4 °F 93% 30.04 in 10.0 mi SSE 10.4 mph - N/A Rain Light Rain
12:38 PM 48.2 °F - - N/A% - 12.0 mi SE 3.5 mph - N/A   Mostly Cloudy
1:00 PM 48.2 °F - 48.2 °F 100% 30.03 in 12.0 mi ESE 4.6 mph - N/A   Mostly Cloudy
2:00 PM 50.0 °F - 48.2 °F 94% 30.03 in 12.0 mi SE 6.9 mph - N/A   Mostly Cloudy
3:00 PM 50.0 °F - 48.2 °F 94% 30.03 in 12.0 mi SE 6.9 mph - N/A   Mostly Cloudy
4:00 PM 49 °F - 48 °F 94% 30.03 in 12 mi SE 4.6 mph - -   Partly Cloudy
4:00 PM 50.0 °F - 48.2 °F 94% 30.03 in 12.0 mi SE 4.6 mph - N/A   Mostly Cloudy
5:00 PM 48.2 °F - 46.4 °F 93% 30.03 in 15.0 mi SSE 3.5 mph - N/A   Mostly Cloudy
6:00 PM 46.4 °F 45.2 °F 46.4 °F 100% 30.04 in 12.0 mi South 3.5 mph - N/A   Mostly Cloudy
7:00 PM 46.4 °F - 46.4 °F 100% 30.05 in 10.0 mi Calm Calm - N/A Rain Light Rain
8:00 PM 46.4 °F - 46.4 °F 100% 30.06 in 20.0 mi North 2.3 mph - N/A   Mostly Cloudy
8:10 PM 46.4 °F - - N/A% - 10.0 mi Calm Calm - N/A   Mostly Cloudy
8:30 PM 44.6 °F - - N/A% - 5.0 mi West 2.3 mph - N/A   Mostly Cloudy
8:44 PM 44.6 °F 43.1 °F - N/A% - 0.5 mi SW 3.5 mph - N/A Fog Fog
8:52 PM 44.6 °F 42.2 °F - N/A% - 0.2 mi WSW 4.6 mph - N/A Fog Fog
9:00 PM 44.6 °F 43.1 °F 44.6 °F 100% 30.07 in 0.4 mi WSW 3.5 mph - N/A Fog Fog
9:11 PM 44.6 °F 40.2 °F - N/A% - 0.5 mi WSW 8.1 mph - N/A Fog Fog
9:18 PM 42.8 °F 37.5 °F - N/A% - 2.0 mi SW 9.2 mph - N/A   Partly Cloudy
9:38 PM 42.8 °F 37.5 °F - N/A% - 6.0 mi SW 9.2 mph - N/A   Scattered Clouds
10:00 PM 42 °F - 42 °F 99% 30.08 in 15 mi SW 9.2 mph - - Fog Light Fog
10:00 PM 41.0 °F 35.2 °F 41.0 °F 100% 30.08 in 15.0 mi WSW 9.2 mph - N/A   Scattered Clouds
11:00 PM 41.0 °F 36.4 °F 39.2 °F 93% 30.11 in 30.0 mi West 6.9 mph - N/A   Partly Cloudy